CW9871 Weather Reports


time (UTC)temp
C
wind
direction
speed
KPH
gust
KPH
rain 1hr
cm
rain 24hr
cm
rain mn
cm
humidity
%
barometer
mb
20260507050055 5 94 3.2 8.0 0.00 1.75 0.00 93 1012.3
20260507044557 5 105 4.8 11.3 0.00 1.96 0.00 93 1012.2
20260507043057 5 103 1.6 8.0 0.00 1.96 0.00 94 1012.1
20260507041559 5 90 3.2 4.8 0.00 1.96 0.00 94 1012.1
20260507040115 5 90 1.6 6.4 0.00 1.96 0.00 94 1011.9
20260507034600 5 86 3.2 6.4 0.00 2.11 1.96 94 1011.8
20260507033101 5 94 1.6 8.0 0.00 2.11 1.96 94 1011.8
20260507031607 5 89 4.8 6.4 0.00 2.11 1.96 94 1011.7
20260507030057 5 100 3.2 6.4 0.00 2.11 1.96 93 1011.5
20260507024605 5 98 0.0 3.2 0.00 2.18 1.96 93 1011.6
20260507023100 5 0 1.6 4.8 0.00 2.18 1.96 93 1011.6
20260507021600 5 98 0.0 6.4 0.00 2.18 1.96 93 1011.7
20260507020104 5 97 1.6 8.0 0.00 2.18 1.96 93 1011.9
20260507014612 5 0 1.6 9.7 0.00 2.24 1.96 92 1011.7
20260507013056 6 97 6.4 12.9 0.03 2.24 1.96 92 1011.9
20260507011604 6 98 3.2 6.4 0.05 2.24 1.96 92 1011.7
20260507010109 6 103 1.6 4.8 0.10 2.24 1.96 91 1011.1
20260507004611 6 117 3.2 16.1 0.15 2.34 1.96 89 1011.1
20260507003059 7 101 0.0 1.6 0.13 2.31 1.93 89 1010.6
20260507001558 7 0 0.0 1.6 0.10 2.29 1.91 87 1010.2
20260507000056 8 0 0.0 1.6 0.05 2.24 1.85 87 1010.2
20260506234555 8 0 0.0 1.6 0.00 2.39 1.80 86 1010.1
20260506233059 8 0 0.0 1.6 0.00 2.39 1.80 84 1009.6
20260506231601 8 0 0.0 1.6 0.00 2.39 1.80 84 1009.6
20260506230056 8 0 0.0 0.0 0.00 2.39 1.80 83 1009.6
20260506224556 8 0 0.0 1.6 0.00 2.46 1.80 83 1009.3
20260506223058 8 0 0.0 1.6 0.00 2.46 1.80 83 1009.4
20260506221557 8 0 0.0 1.6 0.00 2.46 1.80 83 1009.3
20260506220054 8 101 0.0 1.6 0.00 2.46 1.80 82 1009.2
20260506214603 8 0 0.0 3.2 0.00 2.46 1.80 81 1009.3
20260506213055 9 101 1.6 8.0 0.00 2.46 1.80 82 1009.5
20260506211605 8 96 1.6 4.8 0.00 2.46 1.80 81 1009.3
20260506210129 8 96 0.0 3.2 0.00 2.46 1.80 83 1009.3
20260506204554 8 0 0.0 3.2 0.00 2.46 1.80 84 1009.2
20260506203057 8 0 0.0 3.2 0.00 2.46 1.80 83 1009.3
20260506201556 8 96 1.6 4.8 0.00 2.46 1.80 84 1009.2
20260506200106 8 96 0.0 6.4 0.00 2.46 1.80 84 1009.4
20260506194605 8 96 1.6 4.8 0.00 2.46 1.80 86 1009.2
20260506193055 8 96 1.6 4.8 0.00 2.46 1.80 86 1009.3
20260506191607 8 96 1.6 6.4 0.00 2.46 1.80 87 1009.2
20260506190054 8 122 1.6 6.4 0.00 2.46 1.80 89 1009.3
20260506184557 7 150 3.2 6.4 0.00 2.46 1.80 90 1009.3
20260506183106 7 160 3.2 6.4 0.00 2.46 1.80 91 1009.4
20260506181601 7 137 3.2 8.0 0.00 2.46 1.80 91 1009.4
20260506180112 7 139 3.2 6.4 0.00 2.46 1.80 91 1009.6
20260506174630 7 155 1.6 4.8 0.00 2.46 1.80 92 1009.2
20260506173135 7 165 1.6 6.4 0.00 2.46 1.80 92 1008.9
20260506171556 7 138 3.2 6.4 0.00 2.46 1.80 91 1008.5
20260506170057 7 141 3.2 6.4 0.00 2.46 1.80 92 1008.7
20260506164556 7 0 3.2 9.7 0.00 2.46 1.80 92 1008.7
20260506163100 7 140 1.6 8.0 0.00 2.46 1.80 94 1008.5
20260506161557 7 172 1.6 6.4 0.03 2.46 1.80 94 1008.5
20260506160100 7 140 3.2 6.4 0.03 2.46 1.80 94 1008.6
20260506154558 7 145 3.2 8.0 0.03 2.46 1.80 94 1008.7
20260506153057 7 154 1.6 6.4 0.03 2.46 1.80 95 1008.4
20260506151558 6 160 3.2 4.8 0.00 2.44 1.78 95 1008.4
20260506150059 6 148 1.6 4.8 0.03 2.44 1.78 95 1008.4
20260506144606 7 141 1.6 6.4 0.03 2.44 1.78 95 1008.3
20260506143056 7 292 1.6 4.8 0.05 2.44 1.78 95 1007.9
20260506141559 6 155 0.0 4.8 0.05 2.44 1.78 95 1007.9
20260506140055 6 129 0.0 3.2 0.03 2.41 1.75 95 1008.1
20260506134605 6 0 0.0 3.2 0.03 2.41 1.75 95 1008.0
20260506133101 6 269 0.0 3.2 0.03 2.39 1.73 95 1008.0
20260506131556 6 217 1.6 6.4 0.03 2.39 1.73 95 1007.7
20260506130054 6 313 3.2 9.7 0.05 2.39 1.73 95 1007.8
20260506124555 6 161 0.0 6.4 0.08 2.39 1.73 95 1008.1
20260506123054 6 149 1.6 3.2 0.05 2.36 1.70 95 1008.0
20260506121554 6 0 0.0 3.2 0.08 2.36 1.70 95 1008.1
20260506120101 6 208 1.6 8.0 0.08 2.34 1.68 95 1008.2
20260506114554 6 231 1.6 6.4 0.05 2.31 1.65 95 1008.1
20260506113111 6 226 0.0 4.8 0.10 2.31 1.65 95 1007.8
20260506111555 6 0 3.2 9.7 0.10 2.29 1.63 95 1007.6
20260506110057 6 0 1.6 6.4 0.13 2.26 1.60 95 1007.6
20260506104558 6 188 1.6 8.0 0.18 2.26 1.60 95 1007.9
20260506103055 6 0 0.0 3.2 0.18 2.21 1.55 95 1008.1
20260506101553 6 169 1.6 6.4 0.15 2.18 1.52 95 1008.1
20260506094608 6 160 0.0 1.6 0.13 2.08 1.42 95 1007.9
20260506093053 6 160 0.0 4.8 0.13 2.03 1.37 94 1007.8
20260506091556 6 0 1.6 8.0 0.18 2.03 1.37 94 1007.4
20260506090055 6 0 1.6 3.2 0.23 2.01 1.32 94 1007.5
20260506084558 6 0 0.0 9.7 0.25 1.96 1.30 94 1008.1
20260506083059 6 264 3.2 9.7 0.25 1.91 1.24 94 1008.0
20260506081553 6 0 1.6 11.3 0.25 1.85 1.19 94 1008.3
20260506080109 7 284 0.0 3.2 0.25 1.78 1.12 94 1008.1
20260506073109 7 0 1.6 8.0 0.33 1.65 0.99 94 1008.1
20260506071557 7 175 1.6 11.3 0.41 1.60 0.94 94 1007.9
20260506061601 7 117 0.0 6.4 0.25 1.19 0.53 93 1008.1